DELTA 1 DEB

Satellite information

Favourite Embed

Satellite Type and Status

DEBRISIN ORBIT

Key statistics

Satellite DELTA 1 DEB at a glance.

Uptime

18588

Days in orbit

Revolutions

≈ 14.2

Per day

Orbit

SSO

Sun Synchronous Orbit

Inclination

97.8

Latest

Satellite identification and parameters

Extended collection of information and parameters for DELTA 1 DEB.

Object identification

Identified? True

Debris? True

Object name: DELTA 1 DEB

International designator: 1975-004HS

Object number (NORAD): 27726

Object ID (CCSDS): 27726

Country: UNITED STATES OF AMERICA (US)

Current information (Y/N): Y

RCS size: SMALL

Orbital parameters

Period: 101.065 minutes

Inclination: 97.7686 deg

SMA: 7187.202 km

Apoapsis: 886.021 km

Periapsis: 732.114 km

RAAN: 335.3298 deg

Eccentricy: 0.01070702

Argument of periapsis: 8.4764 deg

Mean anomaly: 351.8195 deg

Mean motion: 14.24829733 rev/day

Mean motion (dot): 0.00000224 rev/day2

B* drag term: 0.00010523098 1/REarth

Two-line elements (TLE)

Creation date: Nov. 30, 2025, 5:58 p.m.

Reference frame: TEME

Reference center: EARTH

Epoch: Nov. 30, 2025, 10:53 a.m. UTC

TLE line 0: 0 DELTA 1 DEB

TLE line 1: 1 27726U 75004HS 25334.45389310 .00000224 00000-0 10523-3 0 9992

TLE line 2: 2 27726 97.7686 335.3298 0107070 8.4764 351.8195 14.24829733307258

Live tracking on map

Real-time ground track for satellite DELTA 1 DEB.

In-orbit conjunctions

A list of the most updated potential collisions computed for object DELTA 1 DEB.

Target Orbit TCA Probability of collision Miss distance Type
CZ-4C DEB SSO 2025-02-21 01:20:44 0.0001020281 138.0 (m) DEBRIS
THORAD AGENA D DEB SSO 2024-06-21 16:42:38 0.000204869 35.0 (m) DEBRIS
COSMOS 2251 DEB LEO 2024-06-06 21:48:53 0.0001519147 220.0 (m) DEBRIS

Associated space launch

Earth observation satellite

DELTA 1 DEB was lifted into orbit during the mission ‘Delta 2910 | Landsat 2’, on board a Delta 2910 space rocket.

The launch took place on Jan. 22, 1975, 5:55 p.m. from Space Launch Complex 2W.

For more information about the launch, click the button.

Launch to space Delta 2910 | Landsat 2
Delta 2910 | Landsat 2

Agency: N/A

Status: Launch Successful

Launch date: Jan. 22, 1975, 5:55 p.m. UTC

Rocket: Delta 2910

Launch pad: Space Launch Complex 2W

Location: Vandenberg SFB, CA, USA

...

Latest news about this satellite

There are no fresh news available about this satellite. Check back as we update our databases every day.


Newsletter sign-up

Weekly statistics, charts and insights to help you stay on top of the space industry.